Volver al catálogo

SUCHAI-4

ActivoMilitarSSO
NORAD 69911·PAYLOAD·🇺🇸 United States

Lanzado Jul 7, 2026 desde Vandenberg Space Force Base

Loading…

Próximos Pases (próximas 24 horas)

TLE

ActualizadoSource: Space-Track

Época: Sep 13, 2026, 16:07 UTC

1 69911U 26156AU  26256.67203504  .00001191  00000-0  12657-3 0  9990
2 69911  97.7459 155.8779 0000557 276.8773  83.2382 14.90817204 10180

Sigue SUCHAI-4 en tiempo real con AllMySat

Download on the App Store